Tracking 20628 objects as of 5-Apr-2020
HD Live streaming from Space Station
objects crossing your sky now

PEGASUS DEB

Track PEGASUS DEB now!
10-day predictions


NORAD ID: 39929
Int'l Code: 1994-029AGC
Perigee: 576.2 km
Apogee: 998.6 km
Inclination: 82.0 °
Period: 100.5 minutes
Semi major axis: 7158 km
RCS: 0.0115 m2 (small)
Launch date: May 19, 1994
Source: United States (US)
Launch site: AIR FORCE WESTERN TEST RANGE (AFWTR)

Note: This is SATELLITE DEBRIS
aabbcc
Your satellite tracking list
Your tracking list is empty




NASA's NSSDC Master Catalog

Two Line Element Set (TLE):
1 39929U 94029AGC 20095.46038476  .00000427  00000-0  90262-4 0  9996
2 39929  81.9523 169.4035 0295057 188.2027 171.4282 14.33447565332764
Source of the keplerian elements: AFSPC